星链-32086 (STARLINK-32086 )

导读

STARLINK-32086是美国太空探索技术公司SpaceX星链Starlink低轨互联网星座的一员,于北京时间2024年5月8日发射入轨。星链项目旨在构建覆盖全球的太空互联网通信系统,该卫星运行于近地轨道,主要负责为全球用户提供高速、低延迟的宽带互联网接入服务,补充并扩展星链星座的全球网络覆盖能力。

基本信息
目录编号:
59703
目录名称:
STARLINK-32086
国际标识:
2024-086X
轨道中心:
EARTH
卫星名称:
星链-32086
卫星全名:
星链-32086 (STARLINK-32086 )
卫星状态:
在轨 (已飞行857 天)
发射日期:
2024-05-08 UTC
国别 :
美国 (US)
星等 :
--
该卫星已列入 空间交会检测服务 Space Conjunction Data Service (SCDS) ,当前飞行风险评估等级: 无高风险
轨道信息
数据来源 国际轨道数据
星历时间: 2026-09-11T21:39:07+0800
12小时前
查看轨道信息
半长轴: 6861.212km
偏心率: 0.0001198
轨道倾角: 43.001°
近地点辐角 274.157°
升交点赤经 89.832°
平近点角 85.914°
近地点: 482.253km
远地点: 483.897km
周期: 94.267分钟
每日圈数: 15.275715
详细信息
固有亮度:
5
最大亮度:
1.5
卫星平台:
Starlink v2.0 mini
覆盖范围:
全球
运营商:
太空探索技术公司
运营商所在国:
美国
制造商(研发单位):
太空探索技术公司
制造商所在国:
美国
使用方式:
暂无
卫星简介
星链(Starlink)计划是由太空探索技术公司(SpaceX)提出的一个巨型低轨卫星互联网星座项目,计划在2019年至2024年间在太空搭建由约1.2万颗卫星组成的“星链”网络,其中1584颗将部署在地球上空550千米处的近地轨道,并从2020年开始工作。该卫星仍在工作。
2D轨道图
3D轨道图
轨道高度分析图
轨道倾角分析图
轨道综合分析图
查看轨道综合分析图
与全量物体交会距离演化趋势
与全量物体交会风险概率演化趋势